Location: Saddleback Butte
(34.6776°N, 117.8050°W)
Time: 01:51:31
(UTC-07:00)

Iridium 35 - Visible Passes

Search period start: 24 June 2017 00:00
Search period end: 04 July 2017 00:00
Orbit: 776 x 779 km, 86.4° (Epoch: 23 June)

Date Brightness Start Highest point End Pass type
(mag) Time Alt. Az. Time Alt. Az. Time Alt. Az.
24 Jun 7.5 02:30:35 10° ESE 02:33:05 14° E 02:35:34 10° NE visible
24 Jun 5.2 04:10:00 22° SSW 04:13:13 55° W 04:18:21 10° N visible
25 Jun 5.1 03:36:52 28° S 03:39:42 76° E 03:44:55 10° N visible
26 Jun 6.2 03:03:44 24° SE 03:06:17 39° E 03:11:06 10° NNE visible
26 Jun 6.5 04:44:13 13° WSW 04:47:06 19° W 04:50:49 10° NNW visible
27 Jun 7.1 02:30:35 15° ESE 02:33:00 20° E 02:36:45 10° NE visible
27 Jun 5.7 04:11:05 25° SW 04:13:23 37° W 04:18:12 10° NNW visible
28 Jun 7.7 01:59:32 10° E 01:59:50 10° ENE 02:00:06 10° ENE visible
28 Jun 4.9 03:37:54 40° SSW 03:39:47 72° W 03:45:01 10° N visible
29 Jun 5.4 03:04:44 41° SE 03:06:18 58° E 03:11:26 10° N visible
29 Jun 6.9 04:45:13 10° WSW 04:47:24 13° WNW 04:49:45 10° NW visible
30 Jun 6.5 02:31:32 26° ESE 02:32:57 30° E 02:37:26 10° NNE visible
30 Jun 6.2 04:12:01 22° WSW 04:13:36 25° W 04:17:52 10° NNW visible
01 Jul 7.2 01:58:19 14° E 01:59:42 16° E 02:02:44 10° NE visible
01 Jul 5.3 03:38:48 41° WSW 03:39:56 48° W 03:44:58 10° N visible
02 Jul 4.9 03:05:35 65° S 03:06:22 87° E 03:11:37 10° N visible
03 Jul 5.7 02:32:21 43° ESE 02:32:57 44° E 02:37:53 10° NNE visible
03 Jul 6.6 04:12:50 16° W 04:13:51 17° WNW 04:17:12 10° NW visible
